Weather History for Garden City, KS

Change the Weather History Date:

Sunday, December 8, 2013

  Actual Average Record
Temperature  
Mean Temperature 13 °F 32 °F  
Max Temperature 21 °F 45 °F 72 °F (1984)
Min Temperature 4 °F 20 °F -10 °F (2005)
Degree Days  
Heating Degree Days 52 32  
Month to date heating degree days 321 251  
Since 1 July heating degree days 1365 1340  
Cooling Degree Days 0 0  
Month to date cooling degree days 0 0  
Year to date cooling degree days 1591 1298  
Moisture  
Dew Point 10 °F    
Average Humidity 77    
Maximum Humidity 92    
Minimum Humidity 61    
Precipitation  
Precipitation T in 0.02 in 0.13 in (1961)
Month to date precipitation T 0.15  
Year to date precipitation 14.84 19.10  
Sea Level Pressure  
Sea Level Pressure 30.01 in    
Wind  
Wind Speed 11 mph (NE)    
Max Wind Speed 21 mph    
Max Gust Speed 24 mph    
Visibility 7 miles    
Events Snow    
T = Trace of Precipitation, MM = Missing Value Source: NWS Daily Summary

Daily Weather History Graph

Daily Weather History Graph

Search for Another Location

Airport:

Trip Planner

Search our weather history database for the weather conditions in past years. The results will help you decide how hot, cold, wet, or windy it might be!

Date:

Astronomy

Dec. 08, 2013 Rise Set
Actual Time 7:46 AM CST 5:23 PM CST
Civil Twilight 7:17 AM CST 5:52 PM CST
Nautical Twilight 6:44 AM CST 6:25 PM CST
Astronomical Twilight 6:12 AM CST 6:57 PM CST
Moon 12:12 PM CST (12/8) No Moon Set
Length of Visible Light 10h 35m
Length of Day
9h 36m
Waxing Crescent, 40% of the Moon is Illuminated
Dec 8
Waxing Crescent
Dec 9
First Quarter
Dec 17
Full
Dec 25
Last Quarter
Jan 1
New

Hourly Weather History & Observations

Time (CST) Temp. Windchill Dew Point Humidity Pressure Visibility Wind Dir Wind Speed Gust Speed Precip Events Conditions
12:54 AM 12.9 °F -3.9 °F 1.9 °F 62% 30.13 in 10.0 mi SE 17.3 mph - N/A   Overcast
1:54 AM 12.9 °F -2.8 °F 3.9 °F 67% 30.09 in 10.0 mi SE 15.0 mph - N/A   Overcast
2:54 AM 12.0 °F -4.0 °F 8.1 °F 84% 30.05 in 4.0 mi SE 15.0 mph - 0.00 in Snow Light Snow
3:26 AM 12.2 °F -4.8 °F 8.6 °F 85% 29.90 in 5.0 mi SE 17.3 mph 23.0 mph 0.00 in Snow Light Snow
3:54 AM 12.0 °F -5.1 °F 8.1 °F 84% 30.01 in 6.0 mi SE 17.3 mph - 0.00 in   Overcast
4:12 AM 12.2 °F -4.8 °F 8.6 °F 85% 29.88 in 7.0 mi SSE 17.3 mph - N/A   Overcast
4:54 AM 12.9 °F -2.2 °F 9.0 °F 84% 29.99 in 9.0 mi SE 13.8 mph - N/A   Overcast
5:15 AM 12.2 °F -3.7 °F 8.6 °F 85% 29.86 in 9.0 mi SSE 15.0 mph - N/A   Overcast
5:54 AM 12.9 °F -3.9 °F 9.0 °F 84% 29.99 in 8.0 mi SE 17.3 mph - N/A   Overcast
6:54 AM 12.9 °F -1.6 °F 10.0 °F 88% 29.98 in 7.0 mi SE 12.7 mph - N/A   Overcast
7:54 AM 14.0 °F -0.8 °F 10.0 °F 84% 29.97 in 8.0 mi SE 13.8 mph - N/A   Overcast
8:54 AM 15.1 °F -0.1 °F 10.9 °F 84% 29.95 in 6.0 mi SE 15.0 mph - N/A   Overcast
9:33 AM 15.8 °F -0.6 °F 12.2 °F 86% 29.80 in 6.0 mi SSE 18.4 mph 23.0 mph N/A   Overcast
9:54 AM 16.0 °F 3.6 °F 12.0 °F 84% 29.96 in 6.0 mi SSE 10.4 mph - N/A   Overcast
10:54 AM 18.0 °F 5.4 °F 14.0 °F 84% 29.94 in 8.0 mi SSE 11.5 mph - N/A   Overcast
11:46 AM 19.4 °F - 14.0 °F 80% 29.83 in 8.0 mi Calm Calm - N/A   Overcast
11:54 AM 19.0 °F 11.1 °F 14.0 °F 81% 29.95 in 8.0 mi SSE 5.8 mph - N/A   Overcast
12:54 PM 19.9 °F - 15.1 °F 81% 29.94 in 8.0 mi Calm Calm - N/A   Overcast
1:54 PM 19.9 °F 12.1 °F 14.0 °F 78% 29.95 in 8.0 mi NNE 5.8 mph - N/A   Overcast
2:54 PM 19.0 °F 5.6 °F 14.0 °F 81% 29.99 in 6.0 mi North 13.8 mph - N/A   Haze
3:08 PM 19.4 °F 7.2 °F 14.0 °F 80% 29.90 in 6.0 mi North 11.5 mph - N/A   Haze
3:54 PM 18.0 °F 2.2 °F 12.9 °F 81% 30.06 in 3.0 mi NNW 18.4 mph - 0.00 in Snow Light Snow
4:05 PM 17.6 °F 2.2 °F 12.2 °F 79% 29.94 in 4.0 mi NNW 17.3 mph - 0.00 in Snow Light Snow
4:21 PM 17.6 °F 2.7 °F 12.2 °F 79% 29.95 in 2.5 mi NNW 16.1 mph - 0.00 in Snow Light Snow
4:40 PM 17.6 °F 3.7 °F 12.2 °F 79% 29.97 in 2.5 mi NNW 13.8 mph - 0.00 in Snow Light Snow
4:47 PM 17.6 °F 3.7 °F 12.2 °F 79% 29.97 in 3.0 mi NNW 13.8 mph - 0.00 in Snow Light Snow
4:54 PM 17.1 °F 4.3 °F 12.0 °F 81% 30.09 in 2.5 mi NNW 11.5 mph - 0.00 in Snow Light Snow
5:06 PM 17.6 °F 5.0 °F 10.4 °F 73% 29.97 in 4.0 mi NNW 11.5 mph - 0.00 in Snow Light Snow
5:35 PM 15.8 °F 3.4 °F 10.4 °F 79% 29.98 in 7.0 mi NNW 10.4 mph - 0.00 in   Overcast
5:54 PM 14.0 °F 1.2 °F 9.0 °F 80% 30.13 in 10.0 mi NNW 10.4 mph - 0.00 in   Mostly Cloudy
6:04 PM 12.2 °F -1.0 °F 8.6 °F 85% 30.01 in 10.0 mi NNW 10.4 mph - N/A   Scattered Clouds
6:54 PM 10.9 °F 2.9 °F 7.0 °F 84% 30.18 in 10.0 mi North 4.6 mph - N/A   Clear
7:54 PM 6.1 °F -7.8 °F 3.0 °F 87% 30.22 in 9.0 mi North 9.2 mph - N/A   Clear
8:54 PM 8.1 °F -5.3 °F 3.9 °F 83% 30.21 in 10.0 mi North 9.2 mph - N/A   Clear
9:54 PM 6.1 °F -4.3 °F 3.0 °F 87% 30.25 in 10.0 mi North 5.8 mph - N/A   Clear
10:54 PM 7.0 °F -6.6 °F 3.0 °F 84% 30.24 in 10.0 mi NNW 9.2 mph - N/A   Clear
11:54 PM 7.0 °F -6.6 °F 3.9 °F 87% 30.25 in 10.0 mi NNW 9.2 mph - N/A   Clear